www.pogodaiklimat.ru

Погода и климат >> Архив погоды >> Россия >> Калининградская область >> Пионерский


ПОГОДА в Пионерском

  • Прогноз погоды в Пионерском
  • Монитор погоды в Пионерском

АРХИВ ПОГОДЫ в Пионерском

Время (UTC), дата Ветер
(напр.,м/с)
 
Видим.   Явления Облачность Т
(С)
Тd
(С)
f
(%)
Тe
(С)
Тes
(С)
Комфортность P
(гПа)
Po
(гПа)
Тmin
(С)
Tmax
(С)
R
(мм)
R24
(мм)
S
(см)
06 17.02 З 4-7
{9}
4000 м дымка 10/10 600 м
[Sc]
+5.1 +3.4 89 +1 +1 1019.8 1016.3 +5.1
09 17.02 З 5-7
{9}
4000 м дымка 10/10 600 м
[Sc]
+5.2 +3.7 90 +1 +1 1021.4 1017.9
12 17.02 З 4-7
{8}
4000 м дымка 10/10 600 м
[Sc]
+5.3 +3.5 88 +1 +1 1022.1 1018.6
15 17.02 З 4-7
{9}
4000 м дымка 10/10 600 м
[Sc]
+4.5 +3.3 92 0 0 1022.7 1019.1
18 17.02 З 2-4
{8}
10 км 10/10 600 м
[]
+3.7 +2.8 94 +1 +1 1023.4 1019.8 +5.7
21 17.02 З 2-2
{5}
2000 м дымка 10/10 600 м
[Sc]
+2.8 +2.2 96 -1 -1 1023.6 1020.0
00 18.02 ЮЗ 2-3
{5}
2000 м дымка 10/10 600 м
[Sc]
+2.4 +2.0 97 -1 -1 1024.0 1020.4
03 18.02 ЮЗ 1-1
{3}
2000 м дымка 10/10 600 м
[Sc]
+2.3 +1.9 97 0 0 1023.8 1020.2 +2.3
06 18.02 Ю 1-2
{3}
500 м туман ?/? +1.6 +1.3 98 -0 -0 1023.9 1020.3 +1.5
09 18.02 ЮВ 2-4
{4}
500 м туман ?/? +1.9 +1.6 98 -2 -2 1023.8 1020.2
12 18.02 Ю 3-5
{6}
1000 м дымка {туман} 10/10 300 м
[St]
+3.0 +2.6 97 -1 -1 1022.8 1019.2
15 18.02 ЮВ 2-4
{7}
10 км 4/0
[Ci fib]
+6.9 +3.5 79 +5 +5 1019.8 1016.3
18 18.02 Ю 2-4
{4}
10 км ясно +4.4 +1.9 84 +2 +2 1018.7 1015.1 +7.1
21 18.02 Ю 2-4
{6}
10 км ясно +3.8 +1.8 87 +1 +1 1017.4 1013.8
00 19.02 Ю 2-3
{3}
10 км ясно +2.2 +1.3 94 -1 -1 1015.6 1012.0
03 19.02 Ю 2-3
{4}
4000 м дымка ясно +1.4 +0.7 95 -2 -2 1013.1 1009.5 +1.2
06 19.02 Ю 3-5
{6}
4000 м дымка ясно +1.3 +0.3 93 -3 -3 1010.8 1007.2 +1.2
09 19.02 Ю 4-8
{8}
4000 м дымка 3/0
[Ci fib]
+6.0 +2.0 75 +2 +4 1008.5 1005.0
12 19.02 ЮЗ 6-10
{12}
4000 м дымка 8/0
[Ci fib]
+7.2 +1.4 67 +3 +4 1007.7 1004.2
15 19.02 З 5-10
{12}
4000 м слаб. ливневой снег 10/10 300 м
[Cb calv]
+5.3 +3.5 88 +1 +1 1008.3 1004.8 0.0
18 19.02 ЮЗ 5-10
{11}
4000 м дымка {ливн. осадки} 10/10 600 м
[Sc]
+5.5 +3.2 85 +1 +1 1008.3 1004.8 +8.1 0.4
21 19.02 ЮЗ 5-10
{11}
10 км в посл. час ливневой дождь 10/10 300 м
[Cb calv]
+5.2 +3.2 87 +1 +1 1007.5 1004.0
00 20.02 З 7-14
{14}
10 км {ливн. осадки} 10/10 600 м
[Sc]
+4.8 +2.8 87 -1 -1 1006.9 1003.4
03 20.02 З 7-14
{15}
10 км 10/10 600 м
[Sc]
+4.5 +2.2 85 -1 -1 1007.1 1003.6 +4.4 1
06 20.02 З 6-12
{16}
10 км 9/9 600 м
[Sc]
+4.0 +1.8 86 -2 -2 1008.0 1004.5 +3.9 0.7
09 20.02 З 6-10
{14}
10 км 10/10 600 м
[Sc]
+4.5 +2.0 84 -1 -1 1009.9 1006.4
12 20.02 З 4-8
{12}
10 км 10/10 600 м
[Sc]
+4.8 +1.5 79 +1 +1 1011.8 1008.3
15 20.02 СЗ 2-7
{10}
10 км ясно +3.6 -2.7 63 +1 +1 1015.1 1011.5
18 20.02 СЗ 1-4
{11}
10 км ясно +2.1 -3.7 65 +1 +1 1017.4 1013.8 +5.5 0.1
21 20.02 ЮЗ 2-3
{5}
10 км ясно +0.5 -2.2 82 -3 -3 1018.6 1015.0
00 21.02 СЗ 1-2
{4}
10 км ясно +1.5 +0.6 94 -0 -0 1019.7 1016.1
03 21.02 З 1-1
{2}
10 км 6/0
[Ci fib]
-1.1 -2.4 91 -3 -3 1020.1 1016.5 -1.2
06 21.02 В 1-2
{2}
10 км 10/10 600 м
[Sc]
-0.1 -1.5 90 -2 -2 1020.8 1017.2 -1.2
09 21.02 В 2-4
{4}
10 км 10/10 600 м
[Sc]
+1.3 -1.9 79 -2 -2 1021.2 1017.6
12 21.02 СВ 2-4
{5}
10 км 10/10 600 м
[Sc]
+1.5 -3.5 69 -2 -2 1020.8 1017.2
15 21.02 В 1-3
{5}
10 км слаб. ливневой снег 10/10 600 м
[Cb calv]
+0.3 -3.8 74 -1 -1 1020.8 1017.2 0.0
18 21.02 В 3-6
{7}
10 км {ливн. осадки} 10/10 600 м
[Sc]
+0.1 -5.6 65 -4 -4 1022.5 1018.9 +2.1
21 21.02 СВ 4-7
{9}
10 км 10/10 600 м
[Sc]
-0.5 -8.5 55 -5 -5 1025.5 1021.9
00 22.02 СВ 4-8
{9}
10 км ясно -2.0 -12.4 45 -7 -7 1028.6 1024.9
03 22.02 СВ 4-8
{9}
10 км ясно -3.7 -11.8 53 -9 -9 1032.6 1028.9 -3.7
06 22.02 СВ 5-10
{11}
10 км ясно -4.8 -12.6 54 -11 -11 1036.8 1033.1 -5.1
09 22.02 СВ 4-10
{12}
10 км ясно -2.8 -13.3 44 -8 -6 1040.8 1037.1
12 22.02 СВ 2-4
{10}
10 км ясно -1.5 -12.3 44 -5 -1 1042.6 1038.9
15 22.02 С 2-5
{5}
10 км ясно -1.6 -11.7 46 -5 -5 1043.4 1039.7
18 22.02 С 2-3
{5}
10 км ясно -1.6 -10.7 50 -5 -5 1044.2 1040.5 -1.2
21 22.02 С 1-3
{5}
10 км 3/0
[Ci fib]
-1.4 -9.8 53 -3 -3 1045.3 1041.6
00 23.02 Ю 1-1
{3}
10 км ясно -4.6 -9.3 70 -7 -7 1045.9 1042.1
03 23.02 Ю 2-3
{3}
10 км 10/10 600 м
[Sc]
-3.8 -9.0 67 -8 -8 1045.3 1041.5 -4.8
06 23.02 Ю 2-4
{4}
10 км 9/9 600 м
[Sc]
-3.1 -9.4 62 -7 -7 1044.6 1040.9 -4.8
09 23.02 ЮЗ 5-8
{9}
10 км в посл. час ливневой снег 10/10 300 м
[Cb calv]
-0.1 -6.6 62 -6 -6 1043.9 1040.2
12 23.02 ЮЗ 4-7
{11}
10 км {ливн. осадки} 10/10 600 м
[Sc]
+0.3 -8.3 52 -4 -4 1043.3 1039.6
15 23.02 ЮЗ 4-10
{11}
10 км 10/10 600 м
[Sc]
+0.5 -8.6 50 -4 -4 1040.1 1036.4
18 23.02 З 3-8
{9}
10 км ясно +0.6 -9.4 47 -3 -3 1038.9 1035.2 +0.9 0.0
21 23.02 З 4-7
{9}
10 км 8/8 600 м
[Sc]
+1.4 -6.3 57 -3 -3 1037.0 1033.3
00 24.02 З 4-7
{8}
10 км 10/10 600 м
[Sc]
+2.6 -1.2 76 -2 -2 1035.4 1031.8

 

Местоположение метеостанции Пионерский (Калининградская область, Россия): широта 54.95 долгота 20.21 высота над уровнем моря 28 м.

В архиве по умолчанию представлена погода в Пионерском за последнюю неделю. Архивные данные за месяц целиком и за предыдущие месяцы, начиная с января 2011 года, Вы можете получить, выбрав интересующий диапазон дат из раскрывающегося списка и нажав кнопку "Ввод!".


*Определитесь, кто Вы:
робот инопланетянин человек

Внимание! Время в таблицах - всемирное. Для получения местного времени необходимо прибавить поправку, которая равна 2 ч.

Смотрите также архив погоды в соседних городах и на ближайших метеорологических станциях:

Погода в Рыбном Порту (Калининградская область, Россия) (32 км)
Погода в Калининграде (Калининградская область, Россия) (38 км)
Погода в Балтийске (Калининградская область, Россия) (40 км)
Погода в Рыбачем (Калининградская область, Россия) (46 км)
Погода в Мамоново (Калининградская область, Россия) (56 км)
Погода в Ниде (Литва) (66 км)
Погода в Шилуте (Литва) (91 км)
Погода в Железнодорожном (Калининградская область, Россия) (95 км)
Погода в Хеле (Польша) (97 км)
Погода в Эльблонге (Польша) (100 км)

Пояснения к столбцам:

Ветер - указаны скорость ветра в м/с - средняя за 10 мин, порывы в срок и между сроками (в фигурных скобках) и направление, откуда дует ветер: С - северный, СВ - северо-восточный, В - восточный, ЮВ - юго-восточный, Ю - южный, ЮЗ - юго-западный, З - западный, СЗ - северо-западный.
Видимость - горизонтальная дальность видимости в метрах или километрах. При видимости от 1 до 10 км при отсутствии осадков обычно наблюдается дымка, при ухудшении видимости до 1 км и менее - туман. В сухую погоду видимость может ухудшаться дымом, пылью или мглою.
Явления - указаны атмосферные явления, наблюдавшиеся в срок или в последний час перед сроком; фигурными скобками обозначены явления, наблюдавшиеся между сроками (за 1-3 часа до срока); квадратными скобками обозначены град или гололедные отложения с указанием их диаметра в мм.
Облачность - указаны через наклонную черту общая и нижняя облачность в баллах и высота нижней границы облаков в метрах; квадратными скобками обозначены формы облаков: Ci - перистые, Cs - перисто-слоистые, Cc - перисто-кучевые, Ac - высококучевые, As - высокослоистые, Sc - слоисто-кучевые, Ns - слоисто-дождевые, Cu - кучевые, Cb - кучево-дождевые. Подробнее классификацию облаков см. в Атласе облаков (PDF).
T - Температура воздуха - температура, измеренная на высоте 2 м над землей.
Td - Температура точки росы - температура, при понижении до которой содержащийся в воздухе водяной пар достигнет насыщения.
f - Относительная влажность воздуха - влажноcть воздуха, измеренная на высоте 2 м над землей.
Te - Эффективная температура - температура, которую ощущает одетый по сезону человек в тени. Характеристика душности погоды. При расчете учитывается влияние влажности воздуха и скорости ветра на теплоощущения человека.
Tes - Эффективная температура на солнце - температура, которую ощущает человек, с поправкой на солнечный нагрев. Характеристика знойности погоды. Зависит от высоты солнца над горизонтом, облачности и скорости ветра. Ночью, в пасмурную погоду, а также при ветре 12 м/с и более поправка равна нулю.
P - Атмосферное давление - приведенное к уровню моря атмосферное давление.
Po - Атмосферное давление - измеренное на уровне метеостанции атмосферное давление.
Tmin - Минимальная температура - минимум температуры воздуха на высоте 2 м над землей.
Tmax - Максимальная температура - максимум температуры воздуха на высоте 2 м над землей.
R - Количество осадков - Количество выпавших осадков за период времени, мм. При наведении курсора мыши на число - период времени, за который выпало указанное количество осадков.
R24 - Количество осадков - Количество выпавших осадков за 24 часа, мм.
S - Снежный покров - Высота снежного покрова, см. При наведении курсора мыши на число - состояние снежного покрова и степень покрытия местности в баллах.